TimeEDT,TemperatureF,Dew PointF,Humidity,Sea Level PressureIn,VisibilityMPH,Wind Direction,Wind SpeedMPH,Gust SpeedMPH,PrecipitationIn,Events,Conditions,WindDirDegrees,DateUTC
12:16 AM,62.6,60.8,94,29.93,1.8,SSW,4.6,-,N/A,,Clear,210,2012-10-06 04:16:00
12:20 AM,62.6,60.8,94,29.93,1.0,SW,4.6,-,N/A,,Mist,220,2012-10-06 04:20:00
12:31 AM,64.4,60.8,88,29.94,2.0,SW,3.5,-,N/A,,Partly Cloudy,230,2012-10-06 04:31:00
12:38 AM,64.4,60.8,88,29.93,5.0,SSW,3.5,-,N/A,,Partly Cloudy,210,2012-10-06 04:38:00
12:41 AM,64.4,60.8,88,29.93,2.0,SSW,3.5,-,N/A,,Partly Cloudy,210,2012-10-06 04:41:00
12:43 AM,64.4,60.8,88,29.93,1.0,Calm,Calm,-,N/A,,Mist,0,2012-10-06 04:43:00
12:50 AM,62.6,59.0,88,29.93,0.5,SW,3.5,-,N/A,Fog,Fog,230,2012-10-06 04:50:00
12:53 AM,62.1,59.0,90,29.93,0.5,SW,4.6,-,N/A,Fog,Fog,220,2012-10-06 04:53:00
1:03 AM,62.6,60.8,94,29.93,1.0,SW,3.5,-,N/A,,Mist,230,2012-10-06 05:03:00
1:15 AM,60.8,57.2,88,29.93,0.5,WSW,3.5,-,N/A,Fog,Fog,240,2012-10-06 05:15:00
1:22 AM,60.8,57.2,88,29.94,0.5,WSW,3.5,-,N/A,Fog,Fog,250,2012-10-06 05:22:00
1:32 AM,60.8,57.2,88,29.94,0.5,WSW,3.5,-,N/A,Fog,Fog,250,2012-10-06 05:32:00
1:53 AM,57.0,55.9,96,29.93,0.2,SW,3.5,-,N/A,Fog,Fog,220,2012-10-06 05:53:00
2:12 AM,59.0,55.4,88,29.92,0.5,Calm,Calm,-,N/A,Fog,Fog,0,2012-10-06 06:12:00
2:19 AM,60.8,57.2,88,29.92,0.2,SW,3.5,-,N/A,Fog,Fog,230,2012-10-06 06:19:00
2:34 AM,60.8,57.2,88,29.91,1.0,Calm,Calm,-,N/A,,Mist,0,2012-10-06 06:34:00
2:37 AM,59.0,55.4,88,29.91,4.0,Calm,Calm,-,N/A,,Mostly Cloudy,0,2012-10-06 06:37:00
2:49 AM,59.0,55.4,88,29.91,0.8,Calm,Calm,-,N/A,,Mist,0,2012-10-06 06:49:00
2:53 AM,57.0,55.0,93,29.91,0.5,Calm,Calm,-,N/A,Fog,Fog,0,2012-10-06 06:53:00
3:00 AM,57.2,55.4,94,29.91,0.2,Calm,Calm,-,N/A,Fog,Fog,0,2012-10-06 07:00:00
3:46 AM,57.2,53.6,88,29.90,0.5,SSE,3.5,-,0.01,Fog,Fog,160,2012-10-06 07:46:00
3:53 AM,55.0,53.1,93,29.90,1.0,Calm,Calm,-,0.01,,Mist,0,2012-10-06 07:53:00
3:56 AM,55.4,53.6,94,29.90,0.8,Calm,Calm,-,N/A,,Mist,0,2012-10-06 07:56:00
4:06 AM,57.2,55.4,94,29.90,0.5,Calm,Calm,-,N/A,Fog,Fog,0,2012-10-06 08:06:00
4:38 AM,57.2,55.4,94,29.90,0.5,South,4.6,-,N/A,Fog,Fog,190,2012-10-06 08:38:00
4:53 AM,60.1,57.0,90,29.91,0.2,SSW,4.6,-,N/A,Fog,Fog,200,2012-10-06 08:53:00
5:04 AM,60.8,57.2,88,29.91,0.5,SSW,5.8,-,N/A,Fog,Fog,200,2012-10-06 09:04:00
5:18 AM,62.6,59.0,88,29.91,3.0,SSW,6.9,-,N/A,,Scattered Clouds,200,2012-10-06 09:18:00
5:53 AM,64.9,62.1,90,29.90,9.0,SSW,5.8,-,N/A,,Clear,210,2012-10-06 09:53:00
6:53 AM,66.0,63.0,90,29.89,10.0,SSW,10.4,-,N/A,,Clear,200,2012-10-06 10:53:00
7:53 AM,68.0,64.0,87,29.89,10.0,SSW,11.5,-,N/A,,Clear,210,2012-10-06 11:53:00
8:53 AM,71.1,64.9,81,29.89,10.0,SSW,11.5,-,N/A,,Clear,210,2012-10-06 12:53:00
9:53 AM,72.0,64.9,78,29.88,10.0,SW,15.0,20.7,N/A,,Clear,220,2012-10-06 13:53:00
10:53 AM,73.9,64.9,73,29.88,10.0,SW,16.1,23.0,N/A,,Clear,220,2012-10-06 14:53:00
11:53 AM,75.0,64.9,71,29.86,10.0,SSW,19.6,25.3,N/A,,Clear,200,2012-10-06 15:53:00
12:53 PM,75.0,64.0,69,29.84,10.0,SSW,20.7,29.9,N/A,,Clear,210,2012-10-06 16:53:00
1:53 PM,75.0,64.9,71,29.82,10.0,SSW,20.7,27.6,N/A,,Clear,210,2012-10-06 17:53:00
2:53 PM,73.9,64.9,73,29.80,10.0,SSW,17.3,27.6,N/A,,Clear,200,2012-10-06 18:53:00
3:53 PM,73.0,64.9,76,29.79,10.0,SSW,18.4,25.3,N/A,,Clear,210,2012-10-06 19:53:00
4:53 PM,73.0,64.9,76,29.78,10.0,SSW,16.1,26.5,N/A,,Clear,200,2012-10-06 20:53:00
5:53 PM,70.0,64.9,84,29.80,10.0,SSW,13.8,25.3,N/A,,Clear,210,2012-10-06 21:53:00
7:53 PM,71.1,64.9,81,29.82,10.0,SW,15.0,23.0,0.00,Rain,Light Rain,220,2012-10-06 23:53:00
8:29 PM,71.6,64.4,78,29.83,10.0,SW,10.4,-,0.00,,Overcast,230,2012-10-07 00:29:00
8:53 PM,70.0,63.0,78,29.84,10.0,NW,12.7,23.0,0.00,,Overcast,310,2012-10-07 00:53:00
9:02 PM,66.2,60.8,83,29.85,10.0,NW,10.4,-,0.00,Rain,Light Rain,320,2012-10-07 01:02:00
9:53 PM,64.0,52.0,65,29.88,10.0,NNW,11.5,-,0.00,,Overcast,330,2012-10-07 01:53:00
10:24 PM,62.6,50.0,63,29.89,10.0,NNW,17.3,24.2,N/A,,Overcast,330,2012-10-07 02:24:00
10:32 PM,62.6,50.0,63,29.89,10.0,NNW,13.8,23.0,N/A,,Overcast,330,2012-10-07 02:32:00
10:46 PM,62.6,48.2,59,29.90,10.0,NW,17.3,21.9,N/A,,Overcast,320,2012-10-07 02:46:00
10:53 PM,63.0,48.9,60,29.90,10.0,NW,11.5,21.9,N/A,,Overcast,320,2012-10-07 02:53:00
11:53 PM,61.0,45.0,56,29.93,10.0,NW,18.4,25.3,N/A,,Overcast,320,2012-10-07 03:53:00